TAM3853 SBTE-SBBR

Flight info

Callsign TAM3853
Flight time 1h 50m
Altitude 36000
Route GUEST DCT KADAG DCT TOLAT
Aircraft A320/M-SDE3FGHIRWY/LB1

Departure

Time 2026-04-22 18:33
Airport Senador Petrônio Portela Airport (SBTE)

Arrival

Time 2026-04-22 20:24
Airport Presidente Juscelino Kubitschek International Airport (SBBR)
Time Latitude Longitude Altitude Speed Heading
2026-04-22 18:21 -5.06414 -42.82166 213 ft 0 kts 120°
2026-04-22 18:28 -5.06417 -42.82165 213 ft 0 kts 143°
2026-04-22 18:28 -5.06420 -42.82168 213 ft 1 kts 193°
2026-04-22 18:29 -5.06420 -42.82174 221 ft 1 kts 257°
2026-04-22 18:29 -5.06409 -42.82189 222 ft 4 kts 316°
2026-04-22 18:29 -5.06380 -42.82217 213 ft 7 kts 316°
2026-04-22 18:29 -5.06368 -42.82270 214 ft 9 kts 262°
2026-04-22 18:30 -5.06350 -42.82331 215 ft 11 kts 328°
2026-04-22 18:30 -5.06158 -42.82358 217 ft 17 kts 354°
2026-04-22 18:30 -5.06032 -42.82370 213 ft 19 kts 353°
2026-04-22 18:31 -5.05892 -42.82385 214 ft 21 kts 354°
2026-04-22 18:31 -5.05740 -42.82402 218 ft 23 kts 353°
2026-04-22 18:31 -5.05571 -42.82420 217 ft 26 kts 353°
2026-04-22 18:31 -5.05391 -42.82442 213 ft 26 kts 355°
2026-04-22 18:32 -5.05203 -42.82458 214 ft 28 kts 355°
2026-04-22 18:32 -5.05085 -42.82451 214 ft 14 kts 26°
2026-04-22 18:32 -5.05030 -42.82470 213 ft 5 kts 256°
2026-04-22 18:32 -5.05067 -42.82472 212 ft 10 kts 173°
2026-04-22 18:33 -5.05390 -42.82437 213 ft 89 kts 174°
2026-04-22 18:33 -5.06247 -42.82347 225 ft 155 kts 174°
2026-04-22 18:33 -5.07376 -42.82234 756 ft 165 kts 173°
2026-04-22 18:33 -5.08542 -42.82117 1472 ft 172 kts 175°
2026-04-22 18:34 -5.09786 -42.81998 1895 ft 187 kts 174°
2026-04-22 18:34 -5.11154 -42.82063 2039 ft 211 kts 196°
2026-04-22 18:34 -5.12538 -42.82790 2257 ft 238 kts 206°
2026-04-22 18:34 -5.14076 -42.83602 2697 ft 260 kts 205°
2026-04-22 18:35 -5.15719 -42.84428 3459 ft 267 kts 205°
2026-04-22 18:35 -5.17396 -42.85264 4322 ft 271 kts 204°
2026-04-22 18:35 -5.19096 -42.86115 5105 ft 275 kts 205°
2026-04-22 18:35 -5.20819 -42.86987 5936 ft 279 kts 205°
2026-04-22 18:36 -5.22560 -42.87871 6696 ft 283 kts 205°
2026-04-22 18:36 -5.24331 -42.88770 7406 ft 287 kts 205°
2026-04-22 18:36 -5.26122 -42.89684 8107 ft 291 kts 205°
2026-04-22 18:36 -5.27936 -42.90610 8846 ft 294 kts 205°
2026-04-22 18:37 -5.29769 -42.91547 9547 ft 298 kts 205°
2026-04-22 18:37 -5.31633 -42.92505 10099 ft 307 kts 205°
2026-04-22 18:37 -5.33605 -42.93514 10225 ft 329 kts 205°
2026-04-22 18:37 -5.35674 -42.94570 10458 ft 344 kts 206°
2026-04-22 18:38 -5.37856 -42.95685 10945 ft 350 kts 205°
2026-04-22 18:38 -5.40041 -42.96803 11506 ft 354 kts 206°
2026-04-22 18:38 -5.42210 -42.97919 12073 ft 357 kts 206°
2026-04-22 18:39 -5.46678 -43.00214 13219 ft 364 kts 205°
2026-04-22 18:39 -5.48940 -43.01370 13768 ft 367 kts 205°
2026-04-22 18:39 -5.51228 -43.02537 14249 ft 370 kts 205°
2026-04-22 18:39 -5.53531 -43.03713 14742 ft 373 kts 205°
2026-04-22 18:40 -5.55854 -43.04900 15217 ft 376 kts 205°
2026-04-22 18:40 -5.58189 -43.06096 15707 ft 379 kts 206°
2026-04-22 18:40 -5.60543 -43.07304 16188 ft 381 kts 206°
2026-04-22 18:40 -5.62910 -43.08520 16665 ft 384 kts 206°
2026-04-22 18:41 -5.65299 -43.09746 17142 ft 387 kts 206°
2026-04-22 18:41 -5.67700 -43.10988 17614 ft 390 kts 207°
2026-04-22 18:41 -5.70079 -43.12311 18089 ft 393 kts 208°
2026-04-22 18:41 -5.72444 -43.13714 18505 ft 396 kts 210°
2026-04-22 18:42 -5.74798 -43.15156 18921 ft 398 kts 210°
2026-04-22 18:42 -5.77168 -43.16618 19348 ft 400 kts 210°
2026-04-22 18:42 -5.79549 -43.18079 19765 ft 403 kts 210°
2026-04-22 18:42 -5.81954 -43.19538 20205 ft 405 kts 210°
2026-04-22 18:43 -5.84377 -43.20996 20636 ft 407 kts 210°
2026-04-22 18:43 -5.86817 -43.22454 21065 ft 409 kts 210°
2026-04-22 18:43 -5.89273 -43.23916 21496 ft 412 kts 210°
2026-04-22 18:43 -5.91742 -43.25388 21919 ft 414 kts 210°
2026-04-22 18:44 -5.94223 -43.26869 22353 ft 416 kts 211°
2026-04-22 18:44 -5.96717 -43.28361 22759 ft 418 kts 211°
2026-04-22 18:44 -5.99218 -43.29858 23155 ft 420 kts 211°
2026-04-22 18:44 -6.01738 -43.31367 23545 ft 422 kts 211°
2026-04-22 18:45 -6.04265 -43.32879 23860 ft 424 kts 211°
2026-04-22 18:45 -6.06801 -43.34400 24184 ft 426 kts 211°
2026-04-22 18:45 -6.09351 -43.35930 24500 ft 427 kts 211°
2026-04-22 18:45 -6.11907 -43.37463 24817 ft 429 kts 211°
2026-04-22 18:46 -6.14479 -43.39003 25114 ft 431 kts 211°
2026-04-22 18:46 -6.17056 -43.40544 25425 ft 432 kts 211°
2026-04-22 18:46 -6.19645 -43.42091 25732 ft 434 kts 211°
2026-04-22 18:46 -6.22244 -43.43646 26026 ft 435 kts 211°
2026-04-22 18:47 -6.24854 -43.45210 26324 ft 437 kts 211°
2026-04-22 18:47 -6.27467 -43.46777 26614 ft 439 kts 211°
2026-04-22 18:47 -6.30094 -43.48352 26897 ft 440 kts 211°
2026-04-22 18:47 -6.32724 -43.49927 27170 ft 442 kts 211°
2026-04-22 18:48 -6.35373 -43.51512 27437 ft 443 kts 211°
2026-04-22 18:48 -6.38026 -43.53102 27712 ft 445 kts 211°
2026-04-22 18:48 -6.40689 -43.54701 27986 ft 446 kts 211°
2026-04-22 18:48 -6.43357 -43.56303 28273 ft 448 kts 211°
2026-04-22 18:49 -6.46034 -43.57911 28559 ft 449 kts 211°
2026-04-22 18:49 -6.48722 -43.59524 28848 ft 451 kts 211°
2026-04-22 18:49 -6.51419 -43.61143 29142 ft 452 kts 211°
2026-04-22 18:49 -6.54122 -43.62767 29436 ft 453 kts 211°
2026-04-22 18:50 -6.56826 -43.64392 29859 ft 451 kts 211°
2026-04-22 18:50 -6.59515 -43.66007 30244 ft 449 kts 210°
2026-04-22 18:50 -6.62158 -43.67594 30591 ft 448 kts 210°
2026-04-22 18:50 -6.64831 -43.69196 30947 ft 447 kts 210°
2026-04-22 18:51 -6.67500 -43.70793 31290 ft 446 kts 210°
2026-04-22 18:51 -6.70162 -43.72389 31633 ft 445 kts 210°
2026-04-22 18:51 -6.72818 -43.73988 31958 ft 445 kts 210°
2026-04-22 18:51 -6.75474 -43.75586 32298 ft 445 kts 210°
2026-04-22 18:52 -6.78128 -43.77178 32640 ft 444 kts 210°
2026-04-22 18:52 -6.80783 -43.78769 32971 ft 444 kts 210°
2026-04-22 18:52 -6.83432 -43.80354 33308 ft 443 kts 210°
2026-04-22 18:52 -6.86078 -43.81941 33635 ft 442 kts 210°
2026-04-22 18:53 -6.88717 -43.83525 33960 ft 442 kts 210°
2026-04-22 18:53 -6.91356 -43.85112 34245 ft 441 kts 210°
2026-04-22 18:53 -6.93985 -43.86694 34541 ft 440 kts 210°
2026-04-22 18:53 -6.96610 -43.88274 34835 ft 439 kts 210°
2026-04-22 18:54 -6.99220 -43.89848 35134 ft 437 kts 210°
2026-04-22 18:54 -7.01825 -43.91416 35409 ft 436 kts 210°
2026-04-22 18:54 -7.04431 -43.92982 35682 ft 435 kts 210°
2026-04-22 18:54 -7.07024 -43.94544 35860 ft 435 kts 210°
2026-04-22 18:55 -7.12256 -43.97693 35908 ft 441 kts 210°
2026-04-22 18:55 -7.17533 -44.00868 35908 ft 442 kts 210°
2026-04-22 18:56 -7.22816 -44.04045 35908 ft 442 kts 210°
2026-04-22 18:56 -7.28097 -44.07222 35908 ft 442 kts 209°
2026-04-22 18:57 -7.33387 -44.10394 35899 ft 442 kts 210°
2026-04-22 18:57 -7.38669 -44.13584 35903 ft 443 kts 210°
2026-04-22 18:58 -7.43957 -44.16783 35904 ft 444 kts 210°
2026-04-22 18:58 -7.49259 -44.19980 35908 ft 444 kts 209°
2026-04-22 18:59 -7.54569 -44.23183 35908 ft 445 kts 209°
2026-04-22 18:59 -7.59886 -44.26393 35907 ft 446 kts 209°
2026-04-22 19:00 -7.65215 -44.29601 35905 ft 446 kts 209°
2026-04-22 19:00 -7.70516 -44.32793 35906 ft 447 kts 209°
2026-04-22 19:01 -7.75863 -44.36015 35907 ft 448 kts 209°
2026-04-22 19:01 -7.81206 -44.39244 35904 ft 448 kts 209°
2026-04-22 19:02 -7.86558 -44.42478 35912 ft 449 kts 209°
2026-04-22 19:02 -7.91914 -44.45719 35919 ft 449 kts 209°
2026-04-22 19:03 -7.97275 -44.48969 35919 ft 450 kts 209°
2026-04-22 19:03 -8.02645 -44.52218 35919 ft 450 kts 208°
2026-04-22 19:04 -8.08027 -44.55467 35918 ft 451 kts 208°
2026-04-22 19:04 -8.13408 -44.58720 35924 ft 451 kts 208°
2026-04-22 19:05 -8.18787 -44.61982 35925 ft 451 kts 209°
2026-04-22 19:05 -8.24168 -44.65244 35924 ft 451 kts 208°
2026-04-22 19:06 -8.28643 -44.67955 35924 ft 451 kts 208°
2026-04-22 19:07 -8.36731 -44.72834 35926 ft 451 kts 208°
2026-04-22 19:07 -8.42109 -44.76094 35924 ft 451 kts 208°
2026-04-22 19:08 -8.47485 -44.79355 35921 ft 451 kts 209°
2026-04-22 19:08 -8.52856 -44.82615 35926 ft 450 kts 209°
2026-04-22 19:09 -8.58224 -44.85876 35922 ft 450 kts 209°
2026-04-22 19:09 -8.63593 -44.89133 35925 ft 450 kts 209°
2026-04-22 19:10 -8.68956 -44.92391 35924 ft 450 kts 209°
2026-04-22 19:10 -8.74316 -44.95653 35925 ft 449 kts 209°
2026-04-22 19:11 -8.79670 -44.98906 35929 ft 449 kts 209°
2026-04-22 19:11 -8.85025 -45.02153 35928 ft 448 kts 209°
2026-04-22 19:12 -8.90379 -45.05394 35933 ft 448 kts 209°
2026-04-22 19:12 -8.95709 -45.08642 35936 ft 447 kts 209°
2026-04-22 19:13 -9.01038 -45.11893 35937 ft 447 kts 209°
2026-04-22 19:13 -9.06363 -45.15127 35934 ft 446 kts 209°
2026-04-22 19:14 -9.11687 -45.18363 35938 ft 446 kts 209°
2026-04-22 19:14 -9.16999 -45.21602 35935 ft 446 kts 209°
2026-04-22 19:15 -9.22317 -45.24843 35934 ft 446 kts 209°
2026-04-22 19:15 -9.27630 -45.28074 35935 ft 445 kts 209°
2026-04-22 19:16 -9.32940 -45.31307 35933 ft 445 kts 209°
2026-04-22 19:16 -9.38245 -45.34544 35933 ft 445 kts 209°
2026-04-22 19:17 -9.43513 -45.37762 35932 ft 445 kts 209°
2026-04-22 19:17 -9.48847 -45.41019 35931 ft 445 kts 209°
2026-04-22 19:18 -9.54107 -45.44236 35926 ft 445 kts 209°
2026-04-22 19:18 -9.59405 -45.47465 35929 ft 444 kts 209°
2026-04-22 19:19 -9.64701 -45.50697 35930 ft 444 kts 209°
2026-04-22 19:19 -9.69990 -45.53934 35927 ft 444 kts 209°
2026-04-22 19:20 -9.75281 -45.57169 35924 ft 444 kts 209°
2026-04-22 19:20 -9.80568 -45.60397 35923 ft 444 kts 209°
2026-04-22 19:21 -9.85866 -45.63608 35924 ft 443 kts 207°
2026-04-22 19:21 -9.91239 -45.66668 35928 ft 443 kts 206°
2026-04-22 19:22 -9.96641 -45.69667 35926 ft 442 kts 206°
2026-04-22 19:22 -10.02028 -45.72689 35929 ft 442 kts 206°
2026-04-22 19:23 -10.07399 -45.75738 35930 ft 442 kts 207°
2026-04-22 19:23 -10.12772 -45.78792 35932 ft 442 kts 206°
2026-04-22 19:24 -10.18143 -45.81844 35934 ft 442 kts 206°
2026-04-22 19:24 -10.23514 -45.84891 35936 ft 442 kts 206°
2026-04-22 19:25 -10.28887 -45.87946 35939 ft 442 kts 206°
2026-04-22 19:25 -10.34224 -45.90983 35936 ft 443 kts 206°
2026-04-22 19:26 -10.39603 -45.94032 35939 ft 443 kts 206°
2026-04-22 19:26 -10.44982 -45.97083 35939 ft 443 kts 206°
2026-04-22 19:27 -10.50363 -46.00146 35934 ft 443 kts 206°
2026-04-22 19:27 -10.55747 -46.03213 35933 ft 444 kts 206°
2026-04-22 19:28 -10.61128 -46.06288 35932 ft 444 kts 206°
2026-04-22 19:28 -10.66525 -46.09358 35933 ft 444 kts 206°
2026-04-22 19:29 -10.71921 -46.12424 35934 ft 445 kts 206°
2026-04-22 19:29 -10.77325 -46.15502 35931 ft 445 kts 205°
2026-04-22 19:30 -10.81820 -46.18065 35932 ft 446 kts 205°
2026-04-22 19:30 -10.88109 -46.21653 35934 ft 446 kts 205°
2026-04-22 19:31 -10.93524 -46.24746 35934 ft 447 kts 205°
2026-04-22 19:31 -10.98941 -46.27847 35937 ft 447 kts 205°
2026-04-22 19:32 -11.04365 -46.30943 35939 ft 447 kts 205°
2026-04-22 19:32 -11.09787 -46.34035 35934 ft 446 kts 205°
2026-04-22 19:33 -11.15207 -46.37128 35935 ft 447 kts 205°
2026-04-22 19:33 -11.20626 -46.40234 35938 ft 447 kts 205°
2026-04-22 19:34 -11.26052 -46.43336 35938 ft 447 kts 205°
2026-04-22 19:34 -11.31475 -46.46436 35936 ft 447 kts 205°
2026-04-22 19:35 -11.36892 -46.49540 35936 ft 447 kts 205°
2026-04-22 19:35 -11.41395 -46.52125 35936 ft 447 kts 205°
2026-04-22 19:36 -11.47689 -46.55732 35932 ft 446 kts 205°
2026-04-22 19:36 -11.53103 -46.58830 35933 ft 446 kts 205°
2026-04-22 19:37 -11.58511 -46.61934 35927 ft 446 kts 205°
2026-04-22 19:37 -11.63921 -46.65040 35928 ft 446 kts 205°
2026-04-22 19:38 -11.69331 -46.68138 35925 ft 446 kts 205°
2026-04-22 19:38 -11.74739 -46.71245 35923 ft 446 kts 205°
2026-04-22 19:39 -11.80149 -46.74358 35921 ft 446 kts 205°
2026-04-22 19:39 -11.85552 -46.77469 35921 ft 446 kts 205°
2026-04-22 19:40 -11.90959 -46.80579 35916 ft 446 kts 205°
2026-04-22 19:40 -11.96363 -46.83687 35917 ft 446 kts 205°
2026-04-22 19:41 -12.01763 -46.86807 35915 ft 446 kts 205°
2026-04-22 19:41 -12.07164 -46.89916 35914 ft 446 kts 205°
2026-04-22 19:42 -12.12566 -46.93024 35915 ft 446 kts 205°
2026-04-22 19:42 -12.17970 -46.96131 35913 ft 445 kts 205°
2026-04-22 19:43 -12.26062 -47.00802 35913 ft 445 kts 205°
2026-04-22 19:43 -12.31456 -47.03919 35910 ft 445 kts 205°
2026-04-22 19:44 -12.36847 -47.07032 35912 ft 445 kts 205°
2026-04-22 19:44 -12.42201 -47.10124 35914 ft 445 kts 205°
2026-04-22 19:45 -12.47619 -47.13258 35911 ft 445 kts 205°
2026-04-22 19:45 -12.52967 -47.16354 35913 ft 445 kts 205°
2026-04-22 19:46 -12.58352 -47.19471 35914 ft 445 kts 205°
2026-04-22 19:46 -12.63738 -47.22588 35913 ft 444 kts 205°
2026-04-22 19:47 -12.69124 -47.25699 35914 ft 445 kts 205°
2026-04-22 19:47 -12.74510 -47.28821 35914 ft 445 kts 205°
2026-04-22 19:48 -12.79893 -47.31945 35916 ft 445 kts 205°
2026-04-22 19:48 -12.85277 -47.35067 35915 ft 444 kts 205°
2026-04-22 19:49 -12.90658 -47.38187 35917 ft 444 kts 205°
2026-04-22 19:49 -12.96038 -47.41312 35919 ft 445 kts 205°
2026-04-22 19:50 -13.01424 -47.44443 35923 ft 445 kts 205°
2026-04-22 19:50 -13.06804 -47.47567 35924 ft 444 kts 205°
2026-04-22 19:51 -13.12183 -47.50695 35924 ft 444 kts 205°
2026-04-22 19:51 -13.17558 -47.53822 35932 ft 444 kts 205°
2026-04-22 19:52 -13.22933 -47.56950 35937 ft 444 kts 205°
2026-04-22 19:52 -13.28301 -47.60071 35942 ft 443 kts 205°
2026-04-22 19:53 -13.33667 -47.63201 35942 ft 443 kts 205°
2026-04-22 19:53 -13.39032 -47.66330 35949 ft 444 kts 205°
2026-04-22 19:54 -13.44402 -47.69463 35950 ft 444 kts 205°
2026-04-22 19:54 -13.48864 -47.72069 35952 ft 444 kts 205°
2026-04-22 19:55 -13.55104 -47.75714 35957 ft 444 kts 205°
2026-04-22 19:55 -13.59598 -47.78340 35959 ft 444 kts 205°
2026-04-22 19:56 -13.64972 -47.81471 35952 ft 444 kts 205°
2026-04-22 19:56 -13.70342 -47.84604 35953 ft 444 kts 205°
2026-04-22 19:57 -13.75707 -47.87751 35953 ft 444 kts 206°
2026-04-22 19:57 -13.81068 -47.90899 35951 ft 444 kts 205°
2026-04-22 19:58 -13.86400 -47.94017 35946 ft 443 kts 205°
2026-04-22 19:58 -13.91762 -47.97152 35946 ft 443 kts 205°
2026-04-22 20:00 -14.10500 -48.08154 35943 ft 443 kts 206°
2026-04-22 20:01 -14.15849 -48.11303 35945 ft 443 kts 206°
2026-04-22 20:01 -14.21198 -48.14448 35766 ft 443 kts 206°
2026-04-22 20:01 -14.23870 -48.16018 35529 ft 440 kts 206°
2026-04-22 20:02 -14.26520 -48.17577 35093 ft 437 kts 205°
2026-04-22 20:02 -14.29161 -48.19129 34620 ft 436 kts 205°
2026-04-22 20:02 -14.31789 -48.20676 34151 ft 435 kts 205°
2026-04-22 20:02 -14.34407 -48.22214 33645 ft 433 kts 205°
2026-04-22 20:03 -14.37029 -48.23752 33159 ft 431 kts 206°
2026-04-22 20:03 -14.39620 -48.25276 32688 ft 428 kts 206°
2026-04-22 20:03 -14.42203 -48.26796 32209 ft 426 kts 206°
2026-04-22 20:03 -14.44770 -48.28307 31738 ft 424 kts 207°
2026-04-22 20:04 -14.47290 -48.29793 31278 ft 422 kts 207°
2026-04-22 20:04 -14.49833 -48.31294 30817 ft 420 kts 207°
2026-04-22 20:04 -14.52366 -48.32791 30361 ft 418 kts 207°
2026-04-22 20:04 -14.54889 -48.34280 29892 ft 417 kts 207°
2026-04-22 20:05 -14.57399 -48.35761 29432 ft 414 kts 208°
2026-04-22 20:05 -14.59889 -48.37231 28992 ft 411 kts 207°
2026-04-22 20:05 -14.62363 -48.38692 28568 ft 408 kts 207°
2026-04-22 20:05 -14.64821 -48.40145 28156 ft 406 kts 208°
2026-04-22 20:06 -14.67318 -48.41478 27776 ft 401 kts 198°
2026-04-22 20:06 -14.70004 -48.42117 27386 ft 395 kts 182°
2026-04-22 20:06 -14.72723 -48.41953 26981 ft 390 kts 169°
2026-04-22 20:06 -14.75396 -48.41475 26583 ft 389 kts 168°
2026-04-22 20:07 -14.78060 -48.40992 26176 ft 389 kts 168°
2026-04-22 20:07 -14.80720 -48.40508 25778 ft 388 kts 168°
2026-04-22 20:07 -14.83379 -48.40026 25362 ft 388 kts 168°
2026-04-22 20:07 -14.86036 -48.39550 24944 ft 387 kts 168°
2026-04-22 20:08 -14.88691 -48.39073 24516 ft 387 kts 168°
2026-04-22 20:08 -14.91349 -48.38595 24080 ft 388 kts 168°
2026-04-22 20:08 -14.94009 -48.38117 23645 ft 388 kts 168°
2026-04-22 20:08 -14.96673 -48.37637 23146 ft 389 kts 168°
2026-04-22 20:09 -14.99335 -48.37159 22692 ft 387 kts 168°
2026-04-22 20:09 -15.01980 -48.36685 22244 ft 385 kts 168°
2026-04-22 20:09 -15.04612 -48.36215 21793 ft 383 kts 168°
2026-04-22 20:09 -15.07234 -48.35745 21344 ft 381 kts 168°
2026-04-22 20:10 -15.09838 -48.35277 20898 ft 379 kts 168°
2026-04-22 20:10 -15.12433 -48.34810 20452 ft 377 kts 168°
2026-04-22 20:10 -15.15012 -48.34345 20007 ft 375 kts 168°
2026-04-22 20:10 -15.17572 -48.33885 19632 ft 371 kts 168°
2026-04-22 20:11 -15.20116 -48.33428 19198 ft 369 kts 169°
2026-04-22 20:11 -15.22644 -48.32973 18742 ft 368 kts 169°
2026-04-22 20:11 -15.25151 -48.32521 18314 ft 366 kts 169°
2026-04-22 20:11 -15.27646 -48.32073 17963 ft 361 kts 169°
2026-04-22 20:12 -15.30112 -48.31631 17505 ft 359 kts 169°
2026-04-22 20:12 -15.32561 -48.31190 17096 ft 355 kts 169°
2026-04-22 20:12 -15.34987 -48.30751 16640 ft 354 kts 169°
2026-04-22 20:12 -15.37398 -48.30315 16250 ft 350 kts 169°
2026-04-22 20:13 -15.39790 -48.29880 15807 ft 348 kts 169°
2026-04-22 20:13 -15.42169 -48.29449 15392 ft 346 kts 169°
2026-04-22 20:13 -15.44527 -48.29019 14928 ft 341 kts 168°
2026-04-22 20:13 -15.46828 -48.28601 14429 ft 330 kts 168°
2026-04-22 20:14 -15.49048 -48.28204 14042 ft 317 kts 169°
2026-04-22 20:14 -15.51196 -48.27822 13656 ft 313 kts 168°
2026-04-22 20:14 -15.53339 -48.27436 13251 ft 311 kts 169°
2026-04-22 20:14 -15.55466 -48.27049 12881 ft 310 kts 169°
2026-04-22 20:15 -15.57585 -48.26667 12522 ft 309 kts 169°
2026-04-22 20:15 -15.59697 -48.26287 12146 ft 308 kts 169°
2026-04-22 20:15 -15.61804 -48.25906 11776 ft 307 kts 168°
2026-04-22 20:15 -15.63904 -48.25524 11409 ft 306 kts 169°
2026-04-22 20:16 -15.65998 -48.25143 11038 ft 305 kts 168°
2026-04-22 20:16 -15.68089 -48.24762 10688 ft 305 kts 168°
2026-04-22 20:16 -15.70137 -48.24391 10383 ft 294 kts 168°
2026-04-22 20:16 -15.72155 -48.24028 9973 ft 295 kts 168°
2026-04-22 20:17 -15.74176 -48.23665 9651 ft 293 kts 168°
2026-04-22 20:17 -15.76195 -48.23303 9299 ft 293 kts 168°
2026-04-22 20:17 -15.78204 -48.22940 8952 ft 292 kts 168°
2026-04-22 20:17 -15.80211 -48.22600 8650 ft 291 kts 169°
2026-04-22 20:18 -15.82202 -48.22305 8326 ft 289 kts 167°
2026-04-22 20:18 -15.84071 -48.21604 8001 ft 285 kts 148°
2026-04-22 20:18 -15.85578 -48.20295 7690 ft 281 kts 127°
2026-04-22 20:18 -15.86535 -48.18628 7532 ft 258 kts 114°
2026-04-22 20:19 -15.87264 -48.17011 7421 ft 237 kts 113°
2026-04-22 20:19 -15.87711 -48.15444 7283 ft 218 kts 96°
2026-04-22 20:19 -15.87704 -48.13927 7202 ft 211 kts 86°
2026-04-22 20:19 -15.87601 -48.12427 7129 ft 201 kts 87°
2026-04-22 20:20 -15.87517 -48.11011 6850 ft 191 kts 86°
2026-04-22 20:20 -15.87435 -48.09673 6551 ft 184 kts 87°
2026-04-22 20:20 -15.87354 -48.08377 6311 ft 175 kts 87°
2026-04-22 20:20 -15.87278 -48.07156 6092 ft 165 kts 86°
2026-04-22 20:21 -15.87204 -48.06000 5879 ft 156 kts 86°
2026-04-22 20:21 -15.87134 -48.04904 5704 ft 152 kts 86°
2026-04-22 20:21 -15.87065 -48.03818 5518 ft 150 kts 86°
2026-04-22 20:21 -15.86997 -48.02751 5330 ft 148 kts 86°
2026-04-22 20:22 -15.86929 -48.01686 5144 ft 150 kts 86°
2026-04-22 20:22 -15.86860 -48.00612 4963 ft 149 kts 86°
2026-04-22 20:22 -15.86792 -47.99550 4781 ft 149 kts 85°
2026-04-22 20:22 -15.86724 -47.98482 4582 ft 147 kts 87°
2026-04-22 20:23 -15.86657 -47.97427 4398 ft 147 kts 86°
2026-04-22 20:23 -15.86589 -47.96372 4216 ft 146 kts 85°
2026-04-22 20:23 -15.86521 -47.95316 4016 ft 147 kts 89°
2026-04-22 20:23 -15.86454 -47.94273 3813 ft 146 kts 86°
2026-04-22 20:24 -15.86388 -47.93206 3571 ft 146 kts 89°
2026-04-22 20:24 -15.86320 -47.92180 3468 ft 130 kts 86°
2026-04-22 20:24 -15.86278 -47.91531 3464 ft 31 kts 86°
2026-04-22 20:24 -15.86271 -47.91411 3464 ft 11 kts 86°
2026-04-22 20:25 -15.86315 -47.91368 3464 ft 10 kts 188°
2026-04-22 20:25 -15.86363 -47.91425 3464 ft 11 kts 236°
2026-04-22 20:25 -15.86411 -47.91497 3464 ft 13 kts 235°
2026-04-22 20:25 -15.86460 -47.91575 3465 ft 13 kts 236°
2026-04-22 20:26 -15.86481 -47.91670 3463 ft 15 kts 267°
2026-04-22 20:26 -15.86487 -47.91780 3464 ft 16 kts 263°
2026-04-22 20:26 -15.86574 -47.91815 3464 ft 15 kts 195°
2026-04-22 20:26 -15.86667 -47.91847 3464 ft 13 kts 174°
2026-04-22 20:27 -15.86709 -47.91843 3464 ft 0 kts 175°
2026-04-22 20:27 -15.86710 -47.91843 3464 ft 0 kts 175°